PDT,Max TemperatureF,Mean TemperatureF,Min TemperatureF,Max Dew PointF,MeanDew PointF,Min DewpointF,Max Humidity, Mean Humidity, Min Humidity, Max Sea Level PressureIn, Mean Sea Level PressureIn, Min Sea Level PressureIn, Max VisibilityMiles, Mean VisibilityMiles, Min VisibilityMiles, Max Wind SpeedMPH, Mean Wind SpeedMPH, Max Gust SpeedMPH,PrecipitationIn, CloudCover, Events, WindDirDegrees
2012-9-1,98,86,73,63,46,23,61,30,9,29.96,29.91,29.86,10,10,10,16,6,26,0.00,0,,251
2012-9-2,100,84,68,48,40,32,46,23,9,29.99,29.92,29.84,10,10,10,8,3,17,0.00,0,,355
2012-9-3,100,86,73,57,39,23,37,19,9,30.02,29.95,29.89,10,10,10,13,4,20,0.00,0,,128
2012-9-4,100,89,78,63,56,43,57,33,14,30.05,29.98,29.91,10,10,10,13,4,17,0.00,0,,160
2012-9-5,98,88,77,63,57,46,61,38,18,30.02,29.95,29.89,10,10,5,24,4,28,0.00,0,Thunderstorm,35
2012-9-6,100,90,80,61,53,46,51,31,17,29.96,29.90,29.85,10,10,10,17,4,22,0.00,0,,228
2012-9-7,98,88,77,59,53,46,47,32,17,30.03,29.96,29.91,10,10,10,18,3,24,0.00,0,,67
2012-9-8,100,88,77,63,49,39,61,30,12,30.06,29.98,29.90,10,10,10,15,6,18,0.00,0,,29
2012-9-9,98,88,77,63,56,37,61,35,13,30.01,29.94,29.86,10,10,5,24,4,31,0.00,0,,140
2012-9-10,95,86,77,64,58,48,65,42,21,30.01,29.93,29.85,10,10,10,20,12,26,0.00,0,,161
2012-9-11,86,76,66,66,62,57,94,68,40,30.04,29.96,29.91,10,10,0,25,10,46,0.61,2,Fog-Thunderstorm,147
2012-9-12,89,78,66,66,59,46,100,63,24,30.11,30.06,30.00,10,10,10,9,3,,0.00,0,,5
2012-9-13,93,82,71,55,31,21,53,17,9,30.21,30.13,30.08,10,10,10,15,7,18,0.00,0,,10
2012-9-14,93,78,64,52,42,32,52,29,11,30.21,30.14,30.08,10,10,10,9,2,,0.00,0,,4
2012-9-15,95,80,66,50,40,28,56,28,9,30.18,30.11,30.03,10,10,10,8,3,,0.00,0,,109
2012-9-16,95,82,68,48,38,28,43,23,10,30.11,30.03,29.95,10,10,10,18,4,22,0.00,0,,122
2012-9-17,95,82,68,48,41,32,46,26,11,30.03,29.98,29.93,10,10,10,7,3,,0.00,0,,33
2012-9-18,87,76,66,45,40,36,46,29,17,30.04,30.00,29.98,10,10,10,9,3,,0.00,0,,353
2012-9-19,96,81,66,46,38,27,46,24,8,30.08,30.01,29.96,10,10,10,10,2,,0.00,0,,21
2012-9-20,96,81,66,46,39,28,46,24,9,30.06,29.99,29.93,10,10,10,8,2,,0.00,0,,337
2012-9-21,96,81,66,48,39,28,46,25,9,30.02,29.95,29.89,10,10,10,9,2,,0.00,0,,38
2012-9-22,96,82,68,46,40,32,43,24,10,30.01,29.95,29.91,10,10,10,12,3,17,0.00,0,,320
2012-9-23,96,82,68,48,39,30,46,24,10,30.02,29.96,29.93,10,10,10,21,3,26,0.00,0,,273
2012-9-24,93,82,71,45,38,32,36,21,11,29.96,29.89,29.80,10,10,10,28,7,34,0.00,0,,216
2012-9-25,86,68,51,48,42,36,88,30,17,30.08,29.87,29.83,15,10,10,15,7,,0.00,0,,7
2012-9-26,87,76,66,46,41,36,46,28,16,29.97,29.92,29.88,10,10,10,12,6,,0.00,0,,16
2012-9-27,91,76,62,48,41,32,52,31,12,30.03,29.96,29.92,10,10,10,10,2,,0.00,0,,31
2012-9-28,91,76,62,46,39,27,55,28,10,30.01,29.95,29.88,10,10,10,9,2,,0.00,0,,6
2012-9-29,93,78,64,45,36,25,43,24,9,30.07,30.00,29.94,10,10,10,8,1,,0.00,0,,9
2012-9-30,95,80,64,37,33,25,34,20,8,30.12,30.05,29.99,10,10,10,8,2,,0.00,0,,28